Location: Tuebingen alte Sternwarte
(48.5376°N, 9.0555°E)
Time: 01:47:23
(UTC+02:00)

OTV 5 (USA 277) - Visible Passes

Search period start: 24 September 2017 00:00
Search period end: 04 October 2017 00:00
Orbit: 404 x 417 km, 43.0° (Epoch: 07 September)

Date Brightness Start Highest point End Pass type
(mag) Time Alt. Az. Time Alt. Az. Time Alt. Az.
24 Sep ? 05:12:31 25° SSE 05:12:31 25° SSE 05:14:50 10° ESE visible
25 Sep ? 05:56:38 23° SW 05:57:54 30° S 06:00:51 10° ESE visible
26 Sep ? 05:08:01 25° SE 05:08:01 25° SE 05:09:54 10° ESE visible
26 Sep ? 06:41:09 10° WSW 06:43:46 22° SSW 06:46:25 10° SE visible
27 Sep ? 05:52:12 24° SSW 05:52:51 26° SSW 05:55:39 10° SE visible
28 Sep ? 05:03:42 18° SE 05:03:42 18° SE 05:04:49 10° SE visible
28 Sep ? 06:36:43 10° WSW 06:38:37 15° SSW 06:40:31 10° SSE visible
29 Sep ? 05:48:03 18° SSW 05:48:03 18° SSW 05:50:05 10° SSE visible
